Location: Bower School (historical)
(37.8389°N, 89.5348°W)
Time: 03:53:09
(UTC+00:00)

Cosmos 2227 Rocket - Pass Details

Date: 11 December 2025
Orbit: 838 x 844 km, 71.0° (Epoch: 15 January)

Event Time Altitude Azimuth Distance (km) Brightness Sun altitude
Rises 23:42:46 0° 340° (NNW) 3,399 5.4 -12.2°
Reaches altitude 10° 23:45:14 10° 343° (NNW) 2,461 4.6 -12.7°
Maximum altitude 23:50:51 68° 66° (ENE) 905 2.1 -13.7°
Drops below altitude 10° 23:56:27 10° 149° (SSE) 2,451 4.5 -14.8°
Sets 23:58:54 0° 152° (SSE) 3,382 5.2 -15.3°
